CW6344 Weather Reports


Display with metric or nautical units.
time (UTC)temp
F
wind
direction
speed
MPH
gust
MPH
rain 1hr
in
rain 24hr
in
rain mn
in
humidity
%
barometer
mb
20260507060456 64 49 0.0 0.0 0.04 0.14 0.04 90 1009.1
20260507055456 64 41 0.0 0.0 0.04 0.14 0.04 90 1009.1
20260507054456 65 255 0.0 0.0 0.04 0.14 0.04 90 1009.2
20260507053456 65 73 1.0 2.0 0.04 0.14 0.04 89 1009.3
20260507052456 65 244 0.0 0.0 0.01 0.11 0.01 88 1009.4
20260507051456 65 244 0.0 0.0 0.00 0.10 0.00 87 1009.4
20260507050456 65 244 0.0 0.0 0.00 0.10 0.00 87 1009.3
20260507045456 65 244 0.0 0.0 0.00 0.10 0.00 87 1009.3
20260507044456 65 244 0.0 0.0 0.00 0.10 0.00 87 1009.3
20260507043456 65 244 0.0 0.0 0.00 0.10 0.00 86 1009.2
20260507042456 65 244 0.0 0.0 0.00 0.10 0.00 86 1009.2
20260507041456 66 244 0.0 0.0 0.00 0.10 0.00 85 1009.2
20260507040456 66 244 0.0 0.0 0.00 0.10 0.10 85 1009.2
20260507035456 66 244 0.0 0.0 0.00 0.10 0.10 85 1009.4
20260507034556 65 244 0.0 0.0 0.00 0.10 0.10 86 1009.5
20260507033456 65 244 0.0 0.0 0.00 0.10 0.10 86 1009.4
20260507032456 65 244 0.0 0.0 0.00 0.10 0.10 86 1009.0
20260507031456 66 244 0.0 0.0 0.00 0.10 0.10 85 1008.7
20260507030456 66 242 0.0 0.0 0.00 0.10 0.10 85 1008.6
20260507025456 66 242 0.0 0.0 0.00 0.10 0.10 84 1008.5
20260507024456 66 242 0.0 0.0 0.00 0.10 0.10 84 1008.6
20260507023456 66 242 0.0 1.0 0.00 0.10 0.10 84 1008.8
20260507022456 66 241 0.0 2.0 0.00 0.10 0.10 85 1009.1
20260507021456 66 232 0.0 1.0 0.00 0.10 0.10 85 1009.3
20260507020456 66 227 0.0 0.0 0.00 0.10 0.10 85 1009.3
20260507014526 66 227 0.0 0.0 0.00 0.10 0.10 84 1009.1
20260507012456 67 232 0.0 0.0 0.00 0.10 0.10 83 1009.0
20260507011456 67 277 2.0 2.0 0.00 0.10 0.10 83 1009.0
20260507010456 67 277 0.0 1.0 0.00 0.10 0.10 83 1009.2
20260507005456 67 220 0.0 2.0 0.00 0.10 0.10 82 1009.1
20260507004456 68 221 0.0 0.0 0.00 0.10 0.10 82 1008.9
20260507003456 68 213 2.0 2.0 0.00 0.10 0.10 82 1008.9
20260507002456 68 202 0.0 2.0 0.00 0.10 0.10 82 1009.1
20260507001456 68 9 0.0 1.0 0.00 0.10 0.10 81 1008.8
20260507000456 69 259 0.0 1.0 0.00 0.10 0.10 81 1008.6
20260506235456 69 215 0.0 1.0 0.00 0.10 0.10 80 1008.6
20260506234526 70 258 0.0 0.0 0.00 0.10 0.10 80 1008.5
20260506233456 70 222 0.0 1.0 0.00 0.10 0.10 79 1008.6
20260506232456 70 225 1.0 3.0 0.00 0.10 0.10 79 1008.5
20260506231456 70 244 0.0 3.0 0.00 0.10 0.10 79 1008.4
20260506230456 70 298 1.0 3.0 0.00 0.10 0.10 78 1008.4
20260506224456 71 189 1.0 3.0 0.00 0.10 0.10 78 1008.4
20260506223456 71 200 0.0 3.0 0.00 0.10 0.10 78 1008.4
20260506222456 71 261 0.0 3.0 0.00 0.10 0.10 78 1008.5
20260506221456 71 15 0.0 3.0 0.00 0.10 0.10 77 1008.5
20260506220526 71 232 1.0 3.0 0.00 0.10 0.10 77 1008.6
20260506215456 70 253 1.0 3.0 0.00 0.10 0.10 78 1008.6
20260506214456 70 155 2.0 3.0 0.00 0.10 0.10 78 1008.7
20260506213456 70 299 1.0 2.0 0.00 0.10 0.10 78 1008.7
20260506212456 70 205 2.0 4.0 0.00 0.10 0.10 77 1008.7
20260506211456 70 213 2.0 4.0 0.00 0.10 0.10 77 1008.8
20260506210456 70 271 2.0 3.0 0.00 0.10 0.10 78 1008.7
20260506205456 70 308 0.0 2.0 0.00 0.10 0.10 79 1008.6
20260506204456 69 198 1.0 3.0 0.00 0.10 0.10 79 1008.7
20260506203456 69 230 3.0 3.0 0.00 0.10 0.10 80 1008.6
20260506202456 69 235 1.0 3.0 0.00 0.10 0.10 80 1008.5
20260506201456 69 217 0.0 5.0 0.00 0.10 0.10 79 1008.7
20260506200456 69 238 1.0 3.0 0.00 0.10 0.10 80 1008.7
20260506195456 68 169 0.0 2.0 0.00 0.10 0.10 81 1008.7
20260506194456 68 219 3.0 3.0 0.00 0.10 0.10 81 1009.3
20260506193456 69 214 0.0 3.0 0.00 0.10 0.10 80 1009.3
20260506192526 69 265 3.0 7.0 0.00 0.10 0.10 80 1009.0
20260506191456 69 182 2.0 3.0 0.00 0.10 0.10 81 1009.1
20260506190456 69 186 1.0 3.0 0.00 0.10 0.10 80 1009.5
20260506184456 68 279 4.0 4.0 0.00 0.10 0.10 81 1009.6
20260506183456 69 217 0.0 5.0 0.00 0.10 0.10 80 1009.9
20260506182456 68 219 1.0 3.0 0.00 0.10 0.10 81 1009.7
20260506181456 68 5 1.0 3.0 0.00 0.10 0.10 82 1009.7
20260506180456 68 228 0.0 3.0 0.00 0.10 0.10 82 1010.0
20260506175456 67 293 1.0 2.0 0.00 0.10 0.10 83 1010.1
20260506174456 66 170 0.0 3.0 0.00 0.10 0.10 84 1010.2
20260506173456 66 288 2.0 3.0 0.00 0.10 0.10 85 1010.2
20260506172456 65 200 2.0 2.0 0.01 0.10 0.10 86 1010.2
20260506170456 65 13 1.0 2.0 0.02 0.10 0.10 87 1010.1
20260506165456 64 101 0.0 3.0 0.04 0.10 0.10 88 1010.4
20260506164456 64 201 0.0 4.0 0.07 0.10 0.10 88 1010.4
20260506163456 64 59 2.0 3.0 0.07 0.10 0.10 89 1010.3
20260506162456 64 230 1.0 3.0 0.08 0.09 0.10 88 1010.5
20260506161456 63 224 2.0 5.0 0.07 0.09 0.09 88 1010.6
20260506160456 63 360 2.0 3.0 0.07 0.08 0.08 87 1010.7
20260506155456 64 200 3.0 3.0 0.05 0.06 0.06 85 1010.9
20260506154456 65 168 0.0 4.0 0.02 0.03 0.03 85 1011.2
20260506152456 65 170 0.0 3.0 0.02 0.02 0.02 82 1011.4
20260506151457 65 207 0.0 3.0 0.02 0.02 0.02 81 1011.3
20260506150456 66 355 0.0 6.0 0.01 0.01 0.01 80 1011.5
20260506145457 66 322 1.0 2.0 0.01 0.01 0.01 81 1011.3
20260506144456 66 230 0.0 2.0 0.01 0.01 0.01 81 1011.4
20260506143456 65 295 0.0 2.0 0.01 0.01 0.01 80 1011.3
20260506142456 66 219 0.0 3.0 0.00 0.00 0.00 78 1011.1
20260506141456 67 267 0.0 2.0 0.00 0.00 0.00 76 1011.2
20260506140526 68 206 0.0 2.0 0.00 0.00 0.00 72 1011.1
20260506135457 68 166 1.0 3.0 0.00 0.00 0.00 70 1011.3
20260506134456 68 199 4.0 4.0 0.00 0.00 0.00 70 1011.4
20260506133456 68 165 1.0 7.0 0.00 0.00 0.00 70 1011.4
20260506132456 68 170 0.0 1.0 0.00 0.00 0.00 71 1011.2
20260506131456 68 194 5.0 5.0 0.00 0.00 0.00 69 1011.1
20260506130526 68 144 2.0 3.0 0.00 0.00 0.00 70 1011.1
20260506124456 68 232 3.0 3.0 0.00 0.00 0.00 72 1011.2
20260506123456 67 213 1.0 4.0 0.00 0.00 0.00 71 1010.9
20260506122457 67 134 4.0 6.0 0.00 0.00 0.00 72 1011.2
20260506121457 67 196 1.0 2.0 0.00 0.00 0.00 72 1011.3
20260506120456 66 292 3.0 3.0 0.00 0.00 0.00 71 1011.4
20260506115457 66 207 2.0 6.0 0.00 0.00 0.00 71 1011.4
20260506114457 66 155 0.0 3.0 0.00 0.00 0.00 71 1011.5
20260506113456 66 279 4.0 4.0 0.00 0.00 0.00 71 1011.3
20260506112457 66 196 0.0 3.0 0.00 0.00 0.00 71 1011.2
20260506111456 66 206 2.0 6.0 0.00 0.00 0.00 72 1011.1
20260506110456 65 264 3.0 3.0 0.00 0.00 0.00 73 1011.2
20260506105457 65 221 0.0 3.0 0.00 0.00 0.00 72 1011.0
20260506104456 65 243 1.0 7.0 0.00 0.00 0.00 72 1011.1
20260506103457 65 237 0.0 2.0 0.00 0.00 0.00 72 1010.9
20260506102657 65 223 2.0 2.0 0.00 0.00 0.00 73 1010.9
20260506101456 65 222 0.0 3.0 0.00 0.00 0.00 73 1010.9
20260506100456 65 279 0.0 2.0 0.00 0.00 0.00 73 1010.9
20260506095457 65 320 0.0 2.0 0.00 0.00 0.00 73 1010.9
20260506094457 65 215 1.0 2.0 0.00 0.00 0.00 73 1010.9
20260506093456 65 236 0.0 2.0 0.00 0.00 0.00 74 1010.9
20260506092457 65 77 1.0 6.0 0.00 0.00 0.00 74 1010.9
20260506091457 65 306 1.0 6.0 0.00 0.00 0.00 74 1011.0
20260506090457 65 214 2.0 3.0 0.00 0.00 0.00 74 1010.8
20260506085457 65 305 3.0 4.0 0.00 0.00 0.00 74 1011.0
20260506084457 65 163 1.0 4.0 0.00 0.00 0.00 74 1011.1
20260506083457 66 243 2.0 3.0 0.00 0.00 0.00 74 1011.0
20260506082457 66 302 3.0 6.0 0.00 0.00 0.00 74 1010.9
20260506081457 66 186 2.0 7.0 0.00 0.00 0.00 74 1011.0
20260506080457 66 207 0.0 6.0 0.00 0.00 0.00 74 1011.1
20260506073457 66 121 0.0 3.0 0.00 0.00 0.00 74 1011.1
20260506072457 66 151 1.0 3.0 0.00 0.00 0.00 73 1011.3
20260506071457 66 244 0.0 2.0 0.00 0.00 0.00 73 1011.3
20260506070457 66 252 1.0 2.0 0.00 0.00 0.00 73 1011.3
20260506062457 67 279 1.0 4.0 0.00 0.00 0.00 72 1011.3